Tracking 19576 objects as of 17-Feb-2019
HD Live streaming from Space Station
objects crossing your sky now

MICROMAS 2A

Track MICROMAS 2A now!
10-day predictions
MICROMAS 2A is classified as:


NORAD ID: 43131
Int'l Code: 2018-004W
Perigee: 496.1 km
Apogee: 507.9 km
Inclination: 97.5 °
Period: 94.5 minutes
Semi major axis: 6872 km
RCS: Unknown
Launch date: January 12, 2018
Source: United States (US)
Launch site: SRIHARIKOTA (SRI)

MICROMAS 2A is a 3U cubesat from MIT Lincoln Lab, designed for microwave radiometry of tropical weather.
aabbcc
Your satellite tracking list
Your tracking list is empty




NASA's NSSDC Master Catalog

Two Line Element Set (TLE):
1 43131U 18004W   19047.73991450 +.00001510 +00000-0 +65984-4 0  9997
2 43131 097.5040 115.8578 0008537 329.8654 030.2091 15.23647531060945
Source of the keplerian elements: AFSPC